Flag for United Kingdom Weather past 2 weeks in Bournemouth, England, United Kingdom

Now
64 °F

Sunny.


Feels Like: 64 °F
Forecast: 58 / 67 °F
Wind: 10 mph from South

Location: Bournemouth Airport

Current Time: Jul 6, 2015 at 7:35:40 PM

Latest Report: Jul 6, 2015 at 6:50 PM


Visibility: 10 mi

Pressure: 30.01 "Hg

Humidity: 64%

Dew point: 52 °F

Location of BournemouthLocation

Historic Weather in Bournemouth — Graph

°F

Bournemouth temperature yesterday

Maximum temperature yesterday: 70 °F (at 3:50 PM)
Minimum temperature yesterday: 52 °F (at 4:50 AM)
Average temperature yesterday: 62 °F

Past Weeks' High & Low Weather Summary

 TemperatureHumidityPressure
High84 °F (Jul 1, 12:50 PM)100% (Jun 24, 6:50 AM)30.27 "Hg (Jun 24, 6:50 AM)
Low46 °F (Jun 25, 4:50 AM)37% (Jun 30, 2:50 PM)29.80 "Hg (Jul 1, 12:50 PM)
Average64 °F71%30.07 "Hg
* Reported Jun 21 6:20 PM — Jul 6 6:20 PM, Bournemouth, Weather by CustomWeather, © 2015

Note: Actual official high and low records may vary slightly from our data, if they occured in-between our weather recording intervals... More about our weather records

Advertising

Bournemouth weather history for previous 24 hours

 ConditionsComfort  
Time TempWeatherWind HumidityBarometerVisibility
6:20 PM
Mon, Jul 6
66 °FPassing clouds.12 mph60%30.01 "HgN/A
5:50 PM66 °FPassing clouds.13 mph64%30.01 "HgN/A
5:20 PM68 °FPassing clouds.13 mph53%30.04 "HgN/A
4:50 PM68 °FPassing clouds.13 mph56%30.04 "HgN/A
4:20 PM68 °FPassing clouds.13 mph56%30.07 "HgN/A
3:50 PM68 °FPassing clouds.15 mph60%30.07 "HgN/A
3:20 PM68 °FPassing clouds.15 mph64%30.07 "HgN/A
2:50 PM68 °FPassing clouds.15 mph60%30.09 "HgN/A
2:20 PM66 °FPassing clouds.16 mph64%30.09 "HgN/A
1:50 PM66 °FPassing clouds.17 mph60%30.09 "HgN/A
1:20 PM66 °FPassing clouds.16 mph68%30.09 "HgN/A
12:50 PM66 °FPassing clouds.14 mph64%30.09 "HgN/A
12:20 PM64 °FScattered clouds.14 mph73%30.12 "HgN/A
11:50 AM64 °FScattered clouds.16 mph68%30.09 "HgN/A
11:20 AM64 °FPassing clouds.15 mph68%30.12 "HgN/A
10:50 AM64 °FScattered clouds.15 mph73%30.12 "HgN/A
10:20 AM64 °FScattered clouds.12 mph78%30.12 "HgN/A
9:50 AM64 °FScattered clouds.14 mph78%30.12 "HgN/A
9:20 AM64 °FScattered clouds.14 mph73%30.12 "HgN/A
8:50 AM63 °FScattered clouds.10 mph77%30.12 "HgN/A
8:20 AM63 °FScattered clouds.9 mph77%30.12 "HgN/A
7:20 AM59 °FPassing clouds.2 mph88%30.12 "HgN/A
6:50 AM55 °FPassing clouds.3 mph100%30.12 "HgN/A
6:20 AM50 °FPassing clouds.2 mph100%30.12 "HgN/A
5:50 AM50 °FFog.2 mph94%30.12 "HgN/A
5:20 AM48 °FFog.1 mph94%30.12 "HgN/A
12:50 AM55 °FClear.5 mph88%30.09 "Hg10 mi
12:20 AM57 °FClear.9 mph88%30.09 "Hg10 mi
11:50 PM
Sun, Jul 5
59 °FPassing clouds.10 mph82%30.09 "HgN/A
11:20 PM59 °FPassing clouds.9 mph82%30.09 "HgN/A
10:50 PM59 °FPassing clouds.10 mph82%30.09 "HgN/A
10:20 PM61 °FPassing clouds.12 mph72%30.09 "HgN/A
9:50 PM61 °FPassing clouds.13 mph72%30.07 "HgN/A
9:20 PM61 °FPassing clouds.13 mph72%30.07 "HgN/A
8:50 PM63 °FPassing clouds.14 mph73%30.07 "HgN/A
8:20 PM63 °FPassing clouds.15 mph73%30.07 "HgN/A
7:50 PM64 °FPassing clouds.16 mph64%30.04 "HgN/A
7:20 PM66 °FPassing clouds.16 mph60%30.04 "HgN/A
Weather by CustomWeather, © 2015

See weather overviewHow to use our weather pages